Regional Weather Roundup
Issued by NWS

Home | Current Version | Previous Version | Graphics & Text | Print | Product List | Glossary On
Versions: 1 2 3 4 5 6 7 8 9 10 11 12 13 14 15 16 17 18 19 20 21 22 23 24 25 26 27 28 29 30 31 32 33 34 35 36 37 38 39 40 41 42 43 44 45 46 47 48 49 50
000
ASUS43 KLSX 260357
RWRMO

WEATHER SUMMARY FOR MISSOURI
NATIONAL WEATHER SERVICE SPRINGFIELD MO
1100 PM CDT THU AUG 25 2016

NOTE: "FAIR" INDICATES FEW OR NO CLOUDS BELOW 12,000 FEET WITH NO
       SIGNIFICANT WEATHER AND/OR OBSTRUCTIONS TO VISIBILITY.
       CURRENT SKY AND/OR WEATHER CONDITIONS ARE NOT AVAILABLE FOR
       CHILLICOTHE AND FARMINGTON.

MOZ001>031-035>038-043-044-053-054-260500-
...NORTHERN AND WESTERN MISSOURI...

CITY           SKY/WX    TMP DP  RH WIND       PRES   REMARKS
KANSAS CTY INT CLOUDY    71  65  81 NE8       30.10S
LEE`S SUMMIT   CLOUDY    73  69  87 NE9       30.10R
ST JOSEPH      PTCLDY    67  62  84 N8        30.11S

$$
MOZ066>068-077>081-088>096-101>105-260500-
...SOUTHWEST MISSOURI...

CITY           SKY/WX    TMP DP  RH WIND       PRES   REMARKS
SPRINGFIELD    CLOUDY    76  67  73 S3        30.09S
JOPLIN         CLOUDY    70  67  90 E8        30.09R

$$
MOZ032>034-039>042-045>050-055>058-069>072-260500-
...CENTRAL MISSOURI...

CITY           SKY/WX    TMP DP  RH WIND       PRES   REMARKS
COLUMBIA       NOT AVBL
JEFFERSON CITY CLOUDY    75  72  90 SW5       30.07R
ROLLA          CLOUDY    74  70  87 CALM      30.09R
SEDALIA        CLOUDY    77  74  90 N7        30.09R

$$
MOZ051-052-059>065-260500-
...EAST CENTRAL MISSOURI...

CITY           SKY/WX    TMP DP  RH WIND       PRES   REMARKS
ST LOUIS INTL  MOCLDY    86  72  62 S6        30.05R THUNDER HX  92

$$
MOZ072>076-082>087-097>100-106>115-260500-
...SOUTH CENTRAL AND SOUTHEAST MISSOURI...

CITY           SKY/WX    TMP DP  RH WIND       PRES   REMARKS
CAPE GIRARDEAU PTCLDY    75  73  93 CALM      30.06R
POPLAR BLUFF   CLOUDY    80  75  84 S5        30.06S
WEST PLAINS    CLOUDY    80  69  69 SW7       30.11S

$$



USA.gov is the U.S. government's official web portal to all federal, state and local government web resources and services.